Location: Mohawk View
(42.7837°N, 73.7885°W)
Time: 01:50:50
(UTC+00:00)

NOSS 3-1 (A) - Pass Details

Date: 17 June 2021
Orbit: 729 x 1483 km, 63.4° (Epoch: 23 July)

Event Time Altitude Azimuth Distance (km) Brightness Sun altitude
Exits shadow 06:28:32 36° 235° (SW) 1,267 3.7 -20.5°
Maximum altitude 06:30:47 70° 309° (NW) 904 3.3 -20.3°
Drops below altitude 10° 06:36:58 10° 33° (NNE) 2,712 7.0 -19.9°
Sets 06:39:49 0° 36° (NE) 3,783 8.1 -19.6°
